Regional Weather Roundup
Issued by NWS

Current Version | Previous Version | Text Only | Print | Product List | Glossary On
Versions: 1 2 3 4 5 6 7 8 9 10 11 12 13 14 15 16 17 18 19 20 21 22 23 24 25 26 27 28 29 30 31 32 33 34 35 36 37 38 39 40 41 42 43 44 45 46 47 48 49 50
000
ASUS42 KTBW 202210
RWRFL
FLORIDA REGIONAL WEATHER ROUNDUP
NATIONAL WEATHER SERVICE TAMPA BAY RUSKIN FL
600 PM EDT WED AUG 20 2014

NOTE: "FAIR" INDICATES FEW OR NO CLOUDS BELOW 12,000 FEET WITH NO
SIGNIFICANT WEATHER AND/OR OBSTRUCTIONS TO VISIBILITY.


FLZ001>010-012>015-112-114-115-202300-
PANHANDLE FLORIDA

CITY           SKY/WX    TMP DP  RH WIND       PRES   REMARKS
PENSACOLA      MOSUNNY   90  72  55 S14       30.02F HX  97
PENSACOLA NAS  PTSUNNY   89  74  60 SW17      30.03F HX  98
MILTON NAS     PTSUNNY   91  73  55 NW8       30.04S THUNDER HX  99
CRESTVIEW      LGT RAIN  80  74  81 CALM      30.07R
DUKE FIELD     PTSUNNY   78  74  86 S5        30.05S
VALPARAISO     MOSUNNY   76  72  87 W3        30.05F
MARY ESTHER    CLOUDY    83  68  61 N6        30.04F
TRI COUNTY     LGT RAIN  76  74  93 CALM      30.05F
PANAMA CITY    FAIR      81  73  76 NW3       30.04S
TYNDALL AFB    PTSUNNY   89  76  65 W13       30.05S HX 100
APALACHICOLA   MOSUNNY   92  74  55 W13       30.03F HX 101

STATION/POSITION SKY/WX   TEMP    WIND        PRES    WAVE   SWELL
                          AIR SEA DIR/SP/G            HT/PER HT/PER
                          (F)     (DEG/KT/KT) (MB)    (FT/S) (FT/S)
30.1N   87.6W              86 87  220/ 10/ 12 1017.7F   1/ 6
29.2N   88.2W              87 91  200/  4/  6 1018.5R
28.8N   86.0W              88 91  280/  2/  4 1018.5R   1/ 6   2/ 6
PANAMA CITY BEAC           84 84  290/  4/  6 1017.4S
CAPE SAN BLAS    NOT AVBL
TOWER C                    85     260/ 11/ 11 1017.5F
28.5N   84.5W              86 87  300/  4/  6 1018.1R   1/ 4   2/ 4

$$
FLZ011-016>038-118-127-128-134-139-239-202300-
NORTH FLORIDA

CITY           SKY/WX    TMP DP  RH WIND       PRES   REMARKS
MARIANNA       CLOUDY    84  73  69 W9        30.03F
TALLAHASSEE    PTSUNNY   89  71  55 W10       30.03R HX  95
PERRY          SUNNY     90  73  58 SW9       30.03S HX  98
CROSS CITY       N/A     92  72  51 W7        30.03S HX  99
GAINESVILLE    MOSUNNY   91  70  49 W10       30.03S HX  96
MAYPORT NAS    MOSUNNY   88  76  67 SE9       30.00S HX  99
JACKSONVILLE   MOSUNNY   94  70  45 NW7       29.99F HX 100
JAX NAS        PTSUNNY   97  69  40 W7        30.00S HX 103
JAX CRAIG      MOSUNNY   92  72  51 NW5       30.00S HX  99
JAX CECIL      MOSUNNY   93  72  49 W12       30.00F HX 100
FERNANDINA BEA FAIR      95  68  41 W8        29.99S HX  99
ST AUGUSTINE   SUNNY     96  69  41 VRB3      30.01S HX 102

STATION/POSITION SKY/WX   TEMP    WIND        PRES    WAVE   SWELL
                          AIR SEA DIR/SP/G            HT/PER HT/PER
                          (F)     (DEG/KT/KT) (MB)    (FT/S) (FT/S)
SHELL POINT                89     190/  8/ 11   N/A
KEATON BEACH               86     250/ 13/ 14 1017.2S
CEDAR KEY                  87     280/  8/ 10 1017.8S
FERNANDINA                 92 83  290/  5/  8 1015.5R
30.7N   81.3W                 84                N/A     1/ 9
MAYPORT                    89 82  120/  6/  9   N/A
31.4N   80.9W              85 85  190/ 12/ 14 1015.4R   1/ 8   2/ 8
ST AUGUSTINE               82     150/  9/ 10 1017.1S

$$
FLZ040-043>046-052-053-057-058-063-144-202300-
INTERIOR CENTRAL FLORIDA

CITY           SKY/WX    TMP DP  RH WIND       PRES   REMARKS
OCALA          MOSUNNY   90  73  58 W6        30.04F HX  98
LEESBURG       MOSUNNY   92  72  51 W8        30.04R HX  99
SANFORD        MOSUNNY   94  70  45 W9        30.02S HX 100
ORLANDO EXEC   SUNNY     94  69  44 W10       30.03S HX  99
ORLANDO INTL   MOSUNNY   94  70  45 W9        30.03S HX 100
KISSIMMEE      MOSUNNY   95  70  43 W7        30.03F HX 101
WINTER HAVEN   SUNNY     93  68  43 W3        30.05S HX  97
LAKELAND       PTSUNNY   93  66  40 NW8       30.04F HX  96
BARTOW         FAIR      93  66  40 NW7       30.05S HX  96
OKEECHOBEE     CLOUDY    88  77  70 MISG      30.05S HX 100

$$
FLZ041-047-054-059-064-141-147-202300-
EAST CENTRAL FLORIDA

CITY           SKY/WX    TMP DP  RH WIND       PRES   REMARKS
ORMOND BEACH   MOSUNNY   91  75  59 E8        30.02S HX 102
DAYTONA BEACH  MOSUNNY   91  75  59 E7        30.02S HX 101
DELAND         CLEAR     93  68  43 W6        30.03S HX  97
NEW SMYRNA BEA MOSUNNY   91  75  59 SE9       30.03S HX 102
JFK SPACE CTR  SUNNY     90 N/A N/A SE7       30.03S
TITUSVILLE     MOSUNNY   88  75  66 SE7       30.04  HX  97
CAPE CANAVERAL SUNNY     86  74  67 SE9       30.03S
PATRICK AFB    SUNNY     87  77  72 SE8       30.05R HX  97
MELBOURNE      SUNNY     88  75  65 E12       30.04S HX  97
VERO BEACH     PTSUNNY   85  74  69 E10       30.05S
FT PIERCE      CLOUDY    86  76  71 E9        30.05F HX  96
STUART         PTSUNNY   84  77  79 SE7       30.07S

STATION/POSITION SKY/WX   TEMP    WIND        PRES    WAVE   SWELL
                          AIR SEA DIR/SP/G            HT/PER HT/PER
                          (F)     (DEG/KT/KT) (MB)    (FT/S) (FT/S)
28.5N   80.2W              86 86   90/  6/  8 1017.6F
28.9N   78.5W              85 86  280/  4/  4 1017.8F   2/ 8   2/ 8
TRIDENT PIER               86 82   90/  5/  9 1016.8S
28.4N   80.5W                 82                N/A     1/ 8
27.6N   80.2W                 83                N/A     1/ 8

$$
FLZ050-056-061-142-242-148-248-149-249-151-251-155-255-
160-260-202300-
WEST CENTRAL FLORIDA

CITY           SKY/WX    TMP DP  RH WIND       PRES   REMARKS
CRYSTAL RIVER  FAIR      88  73  62 W9        30.04S HX  96
INVERNESS      FAIR      90  61  37 CALM      30.04F HAZE
BROOKSVILLE    SUNNY     91  73  55 NW8       30.06S HX  99
ZEPHYRHILLS    FAIR      91  68  46 NW7       30.05S HX  95
CLEARWATER     SUNNY     90  74  59 NW9       30.05S HX  99
TAMPA INTL     PTSUNNY   91  72  53 NW10      30.05S HX  98
TAMPA EXEC     SUNNY     91  72  52 NW5       30.05S HX  98
MACDILL AFB    SUNNY     91  77  63 N9        30.05S HX 103
ST PETERSBURG  MOSUNNY   90  72  55 NW9       30.03S HX  97
SARASOTA       SUNNY     93  75  55 W12       30.04S HX 104
VENICE           N/A    N/A N/A N/A MISG        N/A

STATION/POSITION SKY/WX   TEMP    WIND        PRES    WAVE   SWELL
                          AIR SEA DIR/SP/G            HT/PER HT/PER
                          (F)     (DEG/KT/KT) (MB)    (FT/S) (FT/S)
CEDAR KEY                  87     280/  8/ 10 1017.8S
28.5N   84.5W              86 87  300/  4/  6 1018.1R   1/ 4   2/ 4
27.3N   84.3W                 91                N/A     1/ 8
CLEARWATER BEACH           87 91  320/  9/ 11 1017.7R
MIDDLE TAMPA BAY           88     310/ 13/ 16 1017.8S
VENICE                     88 90  300/ 12/ 13 1017.0F

$$
FLZ066-069-070-075>078-162-262-165-265-202300-
SOUTHWEST FLORIDA AND KEYS

CITY           SKY/WX    TMP DP  RH WIND       PRES   REMARKS
PUNTA GORDA    PTSUNNY   95  72  47 N6        30.05S HX 103
FT MYERS       CLOUDY    83  72  69 SW9       30.06R THUNDER
SOUTHWEST INTL CLOUDY    82  72  71 SW14      30.07R
NAPLES         CLOUDY    74  74 100 SW7       30.08R THUNDER
MARCO ISLAND   MOCLDY    75  72  88 NW6       30.09R THUNDER
MARATHON       MOSUNNY   87  76  69 NE5       30.04F HX  97
KEY WEST NAS   PTSUNNY   81  76  84 E5        30.05S
KEY WEST INTL  CLOUDY    82  73  74 CALM      30.06F

STATION/POSITION SKY/WX   TEMP    WIND        PRES    WAVE   SWELL
                          AIR SEA DIR/SP/G            HT/PER HT/PER
                          (F)     (DEG/KT/KT) (MB)    (FT/S) (FT/S)
VENICE                     88 90  300/ 12/ 13 1017.0F
NAPLES                     74     160/ 12/ 15 1019.5R
DRY TORTUGAS               86      60/ 11/ 12 1017.6F
NW FL BAY                  79     110/ 14/ 17 1018.2R
SAND KEY                   80     170/  9/ 12 1018.1R
SOMBRERO KEY               89     150/  7/  8 1017.9F
LONG KEY                   85 92   10/  3/  6 1018.0F
MOLASSES REEF              86 89  100/  5/  7 1017.4F

$$
FLZ067-068-071>074-168-172>174-202300-
SOUTHEAST FLORIDA

CITY           SKY/WX    TMP DP  RH WIND       PRES   REMARKS
W PALM BEACH   MOSUNNY   85  73  67 CALM      30.05S
FT LAUDER-EXEC MOSUNNY   89  75  63 SE10      30.05S HX  99
FT LAUDERDALE  MOSUNNY   90  74  59 SE13      30.05S HX  99
POMPANO BEACH  MOSUNNY   90  75  61 SE10      30.05F HX 100
PEMBROKE PINES MOSUNNY   89  73  59 SE10      30.06F HX  97
OPA LOCKA      MOSUNNY   89  73  59 E10       30.06S HX  97
MIAMI          PTSUNNY   88  76  67 E8        30.05F HX  99
WEST KENDALL   MOSUNNY   90  76  63 E9        30.05F HX 101
HOMESTEAD      MOSUNNY   90  76  62 E8        30.04F HX 101

STATION/POSITION SKY/WX   TEMP    WIND        PRES    WAVE   SWELL
                          AIR SEA DIR/SP/G            HT/PER HT/PER
                          (F)     (DEG/KT/KT) (MB)    (FT/S) (FT/S)
PORT EVERGLADES            88     130/  7/ 10 1017.5
VIRGINIA KEY               87 90  110/  7/  9   N/A
LAKE WORTH                 86 87  120/  6/  8 1017.7R
FOWEY ROCKS                86 88  100/  7/  9 1017.8F
SETTLEMENT POINT           86     100/  4/  6 1018.8F

$$




USA.gov is the U.S. government's official web portal to all federal, state and local government web resources and services.